www.pogodaiklimat.ru

Погода и климат >> Архив погоды >> Словакия >> Нитра


ПОГОДА в Нитре

  • Прогноз погоды в Нитре
  • Монитор погоды в Нитре

АРХИВ ПОГОДЫ в Нитре

Время (UTC), дата Ветер
(напр.,м/с)
 
Видим.   Явления Облачность Т
(С)
Тd
(С)
f
(%)
Тe
(С)
Тes
(С)
Комфортность P
(гПа)
Po
(гПа)
Тmin
(С)
Tmax
(С)
R
(мм)
R24
(мм)
S
(см)
01 14.09 С 5 н/о н/о +18.6 +12.8 69 +19 +19 1028.6 1012.5
02 14.09 С 6 н/о н/о +17.8 +13.1 74 +17 +17 1028.8 1012.6
03 14.09 СЗ 4 н/о н/о +16.9 +12.8 77 +16 +16 1029.0 1012.8
04 14.09 С 6 н/о н/о +16.8 +12.6 76 +16 +16 1029.1 1012.9
05 14.09 С 5 н/о н/о +16.6 +12.0 74 +16 +16 1029.5 1013.3
06 14.09 нст 2 40 км 4/0
[Ac lent Ci fib]
+18.6 +11.7 64 +20 +21 1029.8 1013.7 +16.3
07 14.09 С 5 40 км 4/1 750 м
[Cu hum Ac lent Ci fib]
+19.5 +11.3 59 +21 +22 комфорт 1030.1 1014.0
08 14.09 С 7 40 км 5/1 900 м
[Cu hum Ac lent Ci fib]
+19.3 +11.4 60 +20 +21 1030.6 1014.5
09 14.09 СЗ 6 40 км 5/1 1050 м
[Cu hum Ac lent Ci fib]
+21.1 +11.4 54 +23 +25 комфорт 1030.4 1014.4
10 14.09 СЗ 6 40 км 4/1 1200 м
[Cu hum Ac lent Ci fib]
+21.3 +10.2 49 +23 +26 комфорт 1030.4 1014.4
11 14.09 СЗ 6 40 км 5/1 1200 м
[Cu hum Ac lent Ci fib]
+22.0 +10.8 49 +24 +27 комфорт 1029.8 1013.8
12 14.09 СЗ 7 40 км 5/1 1350 м
[Cu hum Ci fib]
+21.9 +10.1 47 +24 +26 комфорт 1029.6 1013.6
13 14.09 СЗ 7 45 км 5/0
[Ci fib]
+22.1 +9.3 44 +24 +25 комфорт 1029.0 1013.0
14 14.09 СЗ 8 50 км 4/0
[Ci fib]
+22.0 +7.1 38 +23 +24 комфорт 1028.7 1012.7
15 14.09 СЗ 8 50 км 3/0
[Ci fib]
+21.5 +7.0 39 +22 +23 комфорт 1028.2 1012.2
16 14.09 СЗ 8 50 км 3/0
[Ci fib]
+20.2 +6.2 40 +20 +21 1028.2 1012.1
17 14.09 СЗ 6 50 км 3/0
[Ci fib]
+18.1 +7.5 50 +18 +18 1028.3 1012.1
18 14.09 СЗ 4 50 км 3/0
[Ci fib]
+15.3 +7.6 60 +14 +14 1028.8 1012.5 +22.3
19 14.09 С 2 50 км 3/0
[Ac lent Ci fib]
+14.9 +7.7 62 +15 +15 1029.3 1012.9
20 14.09 50 км 3/0
[Ac lent Ci fib]
+14.5 +6.8 60 1029.7 1013.3
21 14.09 СЗ 5 н/о н/о +14.3 +6.7 60 +13 +13 1029.4 1013.0
22 14.09 н/о н/о +13.1 +6.5 64 1029.9 1013.4
23 14.09 ЮВ 1 н/о н/о +11.7 +6.6 71 +12 +12 1029.2 1012.7
00 15.09 нст 1 н/о н/о +10.1 +6.8 80 +10 +10 1029.8 1013.2
01 15.09 н/о н/о +8.8 +6.2 84 1029.3 1012.6
02 15.09 н/о н/о +7.9 +5.5 85 1029.3 1012.5
03 15.09 н/о н/о +8.0 +6.3 89 1029.1 1012.3
04 15.09 н/о н/о +7.1 +5.4 89 1028.9 1012.1
05 15.09 н/о н/о +6.7 +5.5 92 1029.0 1012.2
06 15.09 нст 1 40 км 1/0
[Ci fib]
+11.0 +7.7 80 +11 +12 1028.8 1012.2 +6.5
07 15.09 В 2 40 км 1/0
[Ac lent Ci fib]
+15.2 +7.3 59 +15 +18 1028.7 1012.4
08 15.09 ЮВ 2 40 км 1/0
[Ci fib]
+17.2 +7.6 53 +18 +23 1027.9 1011.7
09 15.09 нст 2 40 км 1/0
[Ci fib]
+18.5 +7.3 48 +19 +27 1027.4 1011.3
10 15.09 40 км 3/0
[Ci fib]
+20.0 +8.4 47 1026.8 1010.8
11 15.09 40 км 4/0
[Ac lent Ci fib]
+21.1 +7.7 42 1025.9 1009.9
12 15.09 нст 2 40 км 4/0
[Ac lent Ci fib]
+22.0 +8.2 41 +23 +30 комфорт 1025.1 1009.2
13 15.09 ЮЗ 3 40 км 3/0
[Ac lent Ci fib]
+22.3 +9.5 44 +24 +29 комфорт 1024.4 1008.5
14 15.09 ЮЗ 4 40 км 3/0
[Ci fib]
+22.5 +11.0 48 +25 +28 комфорт 1023.4 1007.6
15 15.09 ЮЗ 3 40 км 3/0
[Ci fib]
+22.6 +11.7 50 +25 +27 комфорт 1022.6 1006.8
16 15.09 ЮЗ 3 н/о н/о +22.0 +12.3 54 +24 +24 комфорт 1021.8 1006.0
17 15.09 ЮВ 1 н/о н/о +21.2 +12.1 56 +23 +23 комфорт 1021.4 1005.5
18 15.09 нст 1 40 км 3/0
[Ci fib]
+17.1 +12.0 72 +18 +18 1021.5 1005.4 +23.0
19 15.09 штиль 0 40 км 1/0
[Ci fib]
+14.9 +10.7 76 +15 +15 1021.6 1005.4
20 15.09 40 км 3/0
[Ci fib]
+13.8 +11.5 86 1021.5 1005.2
21 15.09 н/о н/о +13.1 +11.2 88 1021.2 1004.9
22 15.09 н/о н/о +12.6 +10.7 88 1021.1 1004.8
23 15.09 СЗ 1 н/о н/о +12.0 +10.2 89 +12 +12 1021.2 1004.8
00 16.09 СЗ 1 н/о н/о +11.5 +10.4 93 +11 +11 1020.5 1004.1
01 16.09 н/о н/о +10.7 +9.6 93 1019.9 1003.5
02 16.09 СЗ 2 н/о н/о +10.6 +9.7 94 +9 +9 1019.9 1003.5
03 16.09 СЗ 3 н/о н/о +11.0 +10.1 94 +9 +9 1019.6 1003.2
04 16.09 СЗ 3 н/о н/о +10.7 +9.9 95 +9 +9 1019.5 1003.1
05 16.09 СЗ 2 н/о н/о +10.5 +9.6 94 +9 +9 1019.6 1003.2
06 16.09 нст 1 25 км 3/0
[Ac lent Ci fib]
+13.1 +11.0 87 +13 +14 1019.2 1002.9 +10.4
07 16.09 25 км 3/0
[Ac lent Ci fib]
+16.4 +12.6 78 1019.3 1003.2
08 16.09 27 км 3/0
[Ac lent Ci fib]
+18.9 +12.6 67 1019.0 1003.1
09 16.09 З 3 30 км 3/0
[Ci sp]
+21.0 +13.0 60 +24 +30 комфорт 1018.4 1002.6
10 16.09 З 3 30 км 4/0
[Ac lent Ci sp]
+23.2 +14.5 58 +27 +34 душно 1017.9 1002.2
11 16.09 З 4 30 км 5/1 1200 м
[Cu hum Ac lent Ci sp]
+24.3 +14.7 55 +27 +32 жарко 1017.4 1001.8
12 16.09 З 5 40 км 6/1 1350 м
[Cu hum Ac lent Ci sp]
+25.3 +14.8 52 +28 +31 жарко 1016.6 1001.0
13 16.09 ЮЗ 4 45 км 8/1 1350 м
[Cu hum Ac cast Ci sp]
+24.5 +14.3 53 +27 +30 жарко 1016.0 1000.4
14 16.09 СЗ 5 40 км 8/1 1350 м
[Cu hum Ac cast Ci sp]
+25.0 +10.9 41 +26 +27 жарко 1015.8 1000.2
15 16.09 СЗ 7 35 км 8/0
[Ac lent Ci sp]
+24.2 +9.4 39 +25 +25 комфорт 1015.4 999.8
16 16.09 СЗ 2 н/о н/о +23.4 +9.8 42 +25 +25 комфорт 1015.3 999.6
17 16.09 С 1 н/о н/о +22.0 +11.4 51 +24 +24 комфорт 1015.0 999.3
18 16.09 нст 1 35 км 9/0
[Ac As]
+19.9 +13.1 65 +23 +23 комфорт 1014.8 999.0 +25.4
19 16.09 30 км 9/0
[Ac As]
+18.7 +12.2 66 1015.1 999.2
20 16.09 30 км 9/0
[Ac As]
+17.6 +13.3 76 1015.3 999.3
21 16.09 н/о н/о +17.5 +12.6 73 1015.4 999.4
22 16.09 В 1 н/о н/о +17.0 +13.5 80 +18 +18 1015.3 999.3
23 16.09 н/о н/о +16.6 +13.3 81 1014.7 998.7
00 17.09 СЗ 2 н/о н/о +16.5 +13.0 80 +17 +17 1014.3 998.3
01 17.09 СЗ 1 н/о н/о +16.0 +13.3 84 +17 +17 1014.5 998.5
02 17.09 н/о н/о +16.0 +12.9 82 1013.9 997.9
03 17.09 СЗ 2 н/о н/о +16.1 +12.6 80 +16 +16 1013.8 997.8
04 17.09 СЗ 3 н/о н/о +15.8 +12.9 83 +15 +15 1013.9 997.9
05 17.09 н/о н/о +16.0 +12.8 81 1014.2 998.2
06 17.09 С 3 15 км 8/3 1500 м
[Sc Ac lent]
+17.2 +12.7 75 +17 +17 1014.3 998.3 +15.8
07 17.09 З 3 15 км 8/4 700 м
[Cu Sc Ac lent]
+17.9 +13.4 75 +18 +19 1014.8 998.9
08 17.09 СЗ 5 15 км 8/4 700 м
[Cu Sc Ac lent]
+18.0 +13.3 74 +18 +18 1015.0 999.1
09 17.09 СЗ 5 15 км 9/5 800 м
[Cu Sc Ac lent]
+17.5 +13.2 76 +17 +18 1015.6 999.6
10 17.09 З 6 20 км 9/5 800 м
[Cu Sc Ac lent]
+18.3 +12.8 70 +18 +19 1015.3 999.4
11 17.09 З 5 20 км 8/5 900 м
[Cu Sc Ac lent]
+18.9 +12.6 67 +20 +21 1015.0 999.1
12 17.09 З 5 15 км 9/5 900 м
[Cu Sc Ac lent]
+18.5 +12.3 67 +19 +20 1014.6 998.7
13 17.09 З 5 15 км 9/6 1080 м
[Cu Sc Ac lent]
+18.9 +12.6 67 +20 +20 1014.0 998.1
14 17.09 З 6 20 км 8/5 1080 м
[Cu Sc Ac lent]
+19.5 +12.0 62 +20 +21 1013.3 997.5
15 17.09 З 5 20 км 8/6 1080 м
[Cu Sc Ac lent]
+19.1 +11.7 62 +20 +20 1013.0 997.1
16 17.09 З 8 н/о н/о +18.9 +11.0 60 +19 +19 1012.6 996.7
17 17.09 СЗ 6 н/о н/о +17.0 +10.6 66 +16 +16 1012.8 996.8
18 17.09 З 5 15 км 5/3 1500 м
[Sc Ac lent Ci fib]
+14.9 +10.5 75 +13 +13 1013.5 997.4 +20.1
19 17.09 З 4 15 км 3/0
[Ci fib]
+15.1 +10.5 74 +14 +14 1013.9 997.8
20 17.09 ЮЗ 2 15 км 3/0
[Ci fib]
+13.8 +9.4 75 +13 +13 1014.3 998.1
21 17.09 н/о н/о +13.0 +8.3 73 1014.6 998.4
22 17.09 СЗ 5 н/о н/о +12.6 +8.3 75 +10 +10 1015.2 998.9
23 17.09 СЗ 9 н/о н/о +14.7 +6.3 57 +12 +12 1015.4 999.3
00 18.09 СЗ 10 н/о н/о +14.1 +4.4 52 +12 +12 1016.5 1000.3
01 18.09 СЗ 9 н/о н/о +13.7 +4.3 53 +11 +11 1016.6 1000.4
02 18.09 СЗ 6 н/о н/о +10.8 +5.1 68 +8 +8 1017.3 1000.9
03 18.09 СЗ 8 н/о н/о +11.3 +4.3 62 +8 +8 1018.3 1001.9
04 18.09 СЗ 12 н/о н/о +11.4 +1.1 49 +8 +8 1018.8 1002.4
05 18.09 СЗ 8 н/о н/о +10.4 +1.8 55 +7 +7 1019.9 1003.4
06 18.09 СЗ 6 20 км 4/3 1380 м
[Sc Ci fib]
+11.5 +3.8 59 +9 +9 1020.9 1004.5 +10.3
07 18.09 СЗ 9 20 км 4/3 800 м
[Cu Sc Ci fib]
+12.4 +2.3 50 +9 +10 1021.6 1005.2
08 18.09 СЗ 10 20 км 4/3 800 м
[Cu hum Ci fib]
+13.1 +2.4 48 +10 +10 1022.2 1005.8
09 18.09 СЗ 8 20 км 4/3 900 м
[Cu hum Ci fib]
+14.2 +2.8 46 +12 +13 1022.5 1006.2
10 18.09 СЗ 9 20 км 4/3 900 м
[Cu hum Ci fib]
+14.9 +2.8 44 +13 +14 1022.5 1006.2
11 18.09 СЗ 8 20 км 4/3 1080 м
[Cu hum Ci fib]
+15.7 +2.5 41 +14 +15 1022.5 1006.3
12 18.09 СЗ 7 20 км 4/3 1080 м
[Cu hum Ci fib]
+16.5 +1.4 36 +15 +17 1022.3 1006.1
13 18.09 СЗ 6 20 км 4/3 1200 м
[Cu hum Ci fib]
+16.7 +1.6 36 +16 +18 1022.1 1005.9
14 18.09 СЗ 5 20 км 3/1 1200 м
[Cu hum Ci fib]
+16.8 +2.0 37 +16 +18 1021.8 1005.7
15 18.09 СЗ 5 20 км 3/1 1380 м
[Cu hum Ci fib]
+16.8 +1.3 35 +16 +17 1021.6 1005.5
16 18.09 СЗ 4 20 км 3/1 1500 м
[Sc diur, vesp Ci fib]
+16.1 +0.3 34 +16 +16 1021.6 1005.4
17 18.09 СЗ 4 20 км 3/1 1500 м
[Sc Ci fib]
+13.9 +0.2 39 +13 +13 1021.8 1005.5
18 18.09 СЗ 3 20 км 3/1 1500 м
[Sc Ci fib]
+12.2 +0.6 45 +11 +11 1022.5 1006.1 +17.1
19 18.09 СЗ 2 20 км 1/0
[Ci fib]
+11.2 +0.9 49 +10 +10 1023.3 1006.8
20 18.09 С 1 15 км ясно +9.2 +2.1 61 +9 +9 1023.8 1007.2
21 18.09 С 2 н/о н/о +7.0 +1.1 66 +5 +5 1024.0 1007.3
22 18.09 СЗ 1 н/о н/о +6.0 +1.7 74 +5 +5 1024.0 1007.2
23 18.09 н/о н/о +6.7 +3.1 78 1024.1 1007.3
00 19.09 штиль 0 н/о н/о +7.2 +3.6 78 +6 +6 1023.9 1007.2
01 19.09 СЗ 2 н/о н/о +7.6 +4.6 81 +6 +6 1023.9 1007.2
02 19.09 н/о н/о +7.3 +3.7 78 1023.8 1007.1
03 19.09 СЗ 2 н/о н/о +7.1 +3.4 77 +5 +5 1023.9 1007.2
04 19.09 СЗ 2 н/о н/о +5.3 +2.1 80 +3 +3 1024.2 1007.4
05 19.09 н/о н/о +5.3 +3.0 85 1024.4 1007.6
06 19.09 нст 1 12 км 3/1 1500 м
[Sc Ci fib]
+8.5 +3.8 72 +8 +9 1024.8 1008.1 +5.2
07 19.09 СЗ 4 15 км 4/3 1500 м
[Sc Ci fib]
+10.6 +5.0 68 +8 +10 1025.0 1008.5
08 19.09 СЗ 8 20 км 3/1 1500 м
[Sc Ci fib]
+12.6 +5.0 60 +10 +11 1025.0 1008.6
09 19.09 СЗ 5 20 км 4/3 900 м
[Cu Sc Ci fib]
+14.2 +5.6 56 +13 +15 1025.1 1008.8
10 19.09 СЗ 4 20 км 4/3 900 м
[Cu med, cong Ci fib]
+15.7 +4.7 48 +15 +19 1024.8 1008.5
11 19.09 СЗ 9 20 км 5/4 1080 м
[Cu med, cong Ci fib]
+15.8 +2.2 40 +14 +15 1024.6 1008.3
12 19.09 СЗ 8 20 км 5/5 1080 м
[Cu med, cong]
+16.2 +3.0 41 +15 +16 1024.3 1008.1
13 19.09 СЗ 8 20 км 5/5 1200 м
[Cu med, cong]
+16.6 +1.5 36 +15 +16 1024.3 1008.1
14 19.09 СЗ 8 20 км 4/4 1200 м
[Cu med, cong]
+16.5 +2.2 38 +15 +16 1024.2 1008.0
15 19.09 СЗ 7 20 км 4/4 1380 м
[Cu med, cong]
+16.4 +2.1 38 +15 +15 1024.0 1007.8
16 19.09 С 7 20 км 5/4 1500 м
[Sc diur, vesp Ci fib]
+15.6 +1.7 39 +14 +14 1024.3 1008.0
17 19.09 С 5 20 км 5/3 1500 м
[Sc Ci fib]
+13.3 +1.6 45 +12 +12 1025.1 1008.7
18 19.09 С 3 20 км 4/1 1500 м
[Sc Ci fib]
+11.8 +3.1 55 +10 +10 1025.7 1009.2 +16.6
19 19.09 СЗ 2 20 км 3/0
[Ci fib]
+10.1 +2.9 61 +9 +9 1026.4 1009.8
20 19.09 СЗ 3 20 км 3/0
[Ci fib]
+8.7 +2.7 66 +6 +6 1026.9 1010.2
21 19.09 н/о н/о +8.3 +2.1 65 1027.3 1010.6
22 19.09 н/о н/о +7.6 +2.7 71 1027.5 1010.7
23 19.09 н/о н/о +7.2 +2.7 73 1027.6 1010.8
00 20.09 нст 2 н/о н/о +6.0 +2.8 80 +4 +4 1027.8 1010.9
01 20.09 н/о н/о +6.8 +2.9 76 1027.7 1010.9
02 20.09 н/о н/о +5.5 +2.8 83 1027.7 1010.8
03 20.09 н/о н/о +4.8 +2.7 86 1027.8 1010.9
04 20.09 С 2 н/о н/о +4.8 +3.0 88 +2 +2 1028.0 1011.1
05 20.09 н/о н/о +5.2 +3.0 86 1028.1 1011.2
06 20.09 СЗ 2 40 км 6/0
[Ac lent Ci fib]
+6.8 +3.9 82 +5 +5 1028.3 1011.5 +4.6
07 20.09 СЗ 4 40 км 8/0
[Ac lent Ci fib]
+10.4 +5.0 69 +8 +10 1028.5 1011.9
08 20.09 СЗ 4 45 км 9/1 900 м
[Cu hum Ac lent Cs]
+12.4 +5.8 64 +11 +12 1028.6 1012.1
09 20.09 СЗ 4 45 км 8/1 1050 м
[Cu hum Ac lent Ci fib]
+13.8 +4.7 54 +13 +15 1028.3 1011.9
10 20.09 С 4 50 км 5/1 1200 м
[Cu med, cong Ac lent Ci fib]
+15.3 +4.4 48 +14 +19 1027.7 1011.4
11 20.09 С 4 50 км 6/3 1350 м
[Cu med, cong Ac lent Ci fib]
+15.7 +4.1 46 +15 +18 1027.1 1010.8
12 20.09 С 3 50 км 6/3 1500 м
[Cu med, cong Ci fib]
+16.2 +3.3 42 +16 +21 1026.6 1010.3
13 20.09 СЗ 3 50 км 8/4 1500 м
[Cu med, cong Ci fib]
+17.5 +3.8 40 +18 +20 1026.2 1010.0
14 20.09 С 3 50 км 8/4 1500 м
[Cu med, cong Ci fib]
+17.2 +2.4 37 +17 +19 1025.8 1009.6
15 20.09 С 3 50 км 8/4 1500 м
[Cu med, cong Ci fib]
+17.4 +1.4 34 +17 +18 1025.6 1009.4
16 20.09 С 3 50 км 6/3 1500 м
[Sc diur, vesp Ci fib]
+16.2 +1.5 37 +16 +16 1025.8 1009.6
17 20.09 СЗ 2 50 км 8/1 1500 м
[Sc diur, vesp Ac lent Ci fib]
+14.1 +2.7 46 +14 +14 1026.1 1009.7
18 20.09 нст 1 50 км 6/1 1500 м
[Sc diur, vesp Ac lent Ci fib]
+12.3 +4.0 57 +13 +13 1026.8 1010.3 +17.9
19 20.09 СЗ 2 50 км 5/0
[Ac lent Ci fib]
+10.2 +4.4 67 +9 +9 1027.2 1010.6
21 20.09 ЮВ 2 н/о н/о +7.8 +3.8 76 +6 +6 1027.9 1011.1
22 20.09 С 2 н/о н/о +6.5 +3.1 79 +4 +4 1027.6 1010.8
23 20.09 С 1 н/о н/о +5.8 +3.1 83 +5 +5 1027.8 1010.9
00 21.09 нст 1 н/о н/о +5.1 +2.3 82 +4 +4 1027.9 1011.0

 

Местоположение метеостанции Нитра (Словакия): широта 48.28 долгота 18.13 высота над уровнем моря 136 м.

В архиве по умолчанию представлена погода в Нитре за последнюю неделю. Архивные данные за месяц целиком и за предыдущие месяцы, начиная с января 2011 года, Вы можете получить, выбрав интересующий диапазон дат из раскрывающегося списка и нажав кнопку "Ввод!".


*Определитесь, кто Вы:
робот инопланетянин человек

Внимание! Время в таблицах - всемирное. Для получения местного времени необходимо прибавить поправку, которая равна 1 ч.

Смотрите также архив погоды в соседних городах и на ближайших метеорологических станциях:

Погода в Моховце (Словакия) (24 км)
Погода в Ясловске Богунице (Словакия) (41 км)
Погода в Пьештяни (Словакия) (44 км)
Погода в Гурбаново (Словакия) (46 км)
Погода в Дудинце (Словакия) (56 км)
Погода в Жьяр-над-Гроном (Словакия) (63 км)
Погода в Прьевидзе (Словакия) (65 км)
Погода в Тате (Венгрия) (69 км)
Погода в Братиславе (Словакия) (69 км)
Погода в Дьере (Венгрия) (71 км)

Пояснения к столбцам:

Ветер - указаны скорость ветра в м/с - средняя за 10 мин, порывы в срок и между сроками (в фигурных скобках) и направление, откуда дует ветер: С - северный, СВ - северо-восточный, В - восточный, ЮВ - юго-восточный, Ю - южный, ЮЗ - юго-западный, З - западный, СЗ - северо-западный.
Видимость - горизонтальная дальность видимости в метрах или километрах. При видимости от 1 до 10 км при отсутствии осадков обычно наблюдается дымка, при ухудшении видимости до 1 км и менее - туман. В сухую погоду видимость может ухудшаться дымом, пылью или мглою.
Явления - указаны атмосферные явления, наблюдавшиеся в срок или в последний час перед сроком; фигурными скобками обозначены явления, наблюдавшиеся между сроками (за 1-3 часа до срока); квадратными скобками обозначены град или гололедные отложения с указанием их диаметра в мм.
Облачность - указаны через наклонную черту общая и нижняя облачность в баллах и высота нижней границы облаков в метрах; квадратными скобками обозначены формы облаков: Ci - перистые, Cs - перисто-слоистые, Cc - перисто-кучевые, Ac - высококучевые, As - высокослоистые, Sc - слоисто-кучевые, Ns - слоисто-дождевые, Cu - кучевые, Cb - кучево-дождевые. Подробнее классификацию облаков см. в Атласе облаков (PDF).
T - Температура воздуха - температура, измеренная на высоте 2 м над землей.
Td - Температура точки росы - температура, при понижении до которой содержащийся в воздухе водяной пар достигнет насыщения.
f - Относительная влажность воздуха - влажноcть воздуха, измеренная на высоте 2 м над землей.
Te - Эффективная температура - температура, которую ощущает одетый по сезону человек в тени. Характеристика душности погоды. При расчете учитывается влияние влажности воздуха и скорости ветра на теплоощущения человека.
Tes - Эффективная температура на солнце - температура, которую ощущает человек, с поправкой на солнечный нагрев. Характеристика знойности погоды. Зависит от высоты солнца над горизонтом, облачности и скорости ветра. Ночью, в пасмурную погоду, а также при ветре 12 м/с и более поправка равна нулю.
P - Атмосферное давление - приведенное к уровню моря атмосферное давление.
Po - Атмосферное давление - измеренное на уровне метеостанции атмосферное давление.
Tmin - Минимальная температура - минимум температуры воздуха на высоте 2 м над землей.
Tmax - Максимальная температура - максимум температуры воздуха на высоте 2 м над землей.
R - Количество осадков - Количество выпавших осадков за период времени, мм. При наведении курсора мыши на число - период времени, за который выпало указанное количество осадков.
R24 - Количество осадков - Количество выпавших осадков за 24 часа, мм.
S - Снежный покров - Высота снежного покрова, см. При наведении курсора мыши на число - состояние снежного покрова и степень покрытия местности в баллах.